Printer-friendly version
Follow the MPC on Twitter Follow the MPC on Facebook The MPC blog
Minor Planet Center

MPEC 2010-K03 : 2010 JF88

The following Minor Planet Electronic Circular may be linked-to from your own Web pages, but must not otherwise be redistributed electronically.

A form allowing access to any MPEC is at the bottom of this page.


Read MPEC 2010-K02 Read MPEC 2010-K04


M.P.E.C. 2010-K03                                Issued 2010 May 16, 15:04 UT

     The Minor Planet Electronic Circulars contain information on unusual
         minor planets and routine data on comets.  They are published
   on behalf of Commission 20 of the International Astronomical Union by the
          Minor Planet Center, Smithsonian Astrophysical Observatory,
                          Cambridge, MA 02138, U.S.A.

             Prepared using the Tamkin Foundation Computer Network

                              MPC@CFA.HARVARD.EDU
       URL http://www.minorplanetcenter.org/iau/mpc.html  ISSN 1523-6714

                                   2010 JF88

Observations:
     K10J88F* C2010 05 14.25803 14 47 37.86 +30 09 43.5          19.5 V EK003703
     K10J88F  C2010 05 14.26141 14 47 37.39 +30 09 48.7          19.6 V EK003703
     K10J88F  C2010 05 14.26485 14 47 37.03 +30 09 52.0          20.2 V EK003703
     K10J88F  C2010 05 14.36586 14 47 22.95 +30 11 37.2          19.9 V EK003703
     K10J88F  C2010 05 14.36780 14 47 22.70 +30 11 38.4          19.9 V EK003703
     K10J88F  C2010 05 14.36976 14 47 22.52 +30 11 41.2          19.5 V EK003703
     K10J88F  C2010 05 14.37170 14 47 22.23 +30 11 43.5          19.7 V EK003703
     K10J88F 1C2010 05 14.39990 14 47 18.43 +30 12 08.3                 EK003658
     K10J88F 1C2010 05 14.40208 14 47 18.16 +30 12 10.8                 EK003658
     K10J88F 1C2010 05 14.40429 14 47 17.88 +30 12 13.2                 EK003658
     K10J88F KC2010 05 14.95789 14 46 04.96 +30 21 55.1          18.9 C EK003J01
     K10J88F KC2010 05 14.96383 14 46 04.20 +30 22 01.6          19.1 C EK003J01
     K10J88F KC2010 05 14.96977 14 46 03.30 +30 22 07.7          19.2 C EK003J01
     K10J88F  C2010 05 15.19776 14 45 33.12 +30 26 04.3          19.6 V EK003G96
     K10J88F  C2010 05 15.19832 14 45 33.04 +30 26 05.1          19.7 V EK003G96
     K10J88F  C2010 05 15.19891 14 45 32.94 +30 26 05.7          19.5 V EK003G96
     K10J88F  C2010 05 15.19950 14 45 32.86 +30 26 06.6          19.5 V EK003G96
     K10J88F  C2010 05 15.20231 14 45 32.41 +30 26 09.2          19.0 R EK003H01
     K10J88F  C2010 05 15.21268 14 45 30.96 +30 26 19.9          18.8 R EK003H01
     K10J88F  C2010 05 15.22003 14 45 29.93 +30 26 27.7          18.8 R EK003H01
     K10J88F  C2010 05 15.22707 14 45 28.95 +30 26 34.9          18.8 R EK003H01
     K10J88F  C2010 05 15.24852 14 45 25.66 +30 26 55.1          19.4 V EK003H26
     K10J88F  C2010 05 15.25089 14 45 25.41 +30 26 56.8          19.2 V EK003H26
     K10J88F  C2010 05 15.25324 14 45 24.90 +30 26 59.4          19.4 V EK003H26
     K10J88F KC2010 05 15.97981 14 43 46.53 +30 39 15.1          18.9 R EK003B20
     K10J88F KC2010 05 15.98407 14 43 45.94 +30 39 19.1          19.0 R EK003B20
     K10J88F KC2010 05 15.99002 14 43 45.10 +30 39 24.8          19.0 R EK003B20
     K10J88F  C2010 05 16.23179 14 43 12.39 +30 43 27.1          19.3 V EK003G96
     K10J88F  C2010 05 16.23240 14 43 12.28 +30 43 27.7          19.5 V EK003G96
     K10J88F  C2010 05 16.23302 14 43 12.21 +30 43 28.4          19.1 V EK003G96
     K10J88F  C2010 05 16.23365 14 43 12.10 +30 43 28.9          19.4 V EK003G96
     K10J88F  C2010 05 16.27016 14 43 06.81 +30 44 05.0          19.0 R EK003H01
     K10J88F  C2010 05 16.27132 14 43 06.56 +30 44 05.6          19.7 C EK003H10
     K10J88F  C2010 05 16.27302 14 43 06.38 +30 44 08.4          20.1 C EK003H10
     K10J88F  C2010 05 16.27523 14 43 05.98 +30 44 09.7          19.8 C EK003H10
     K10J88F  C2010 05 16.27696 14 43 05.83 +30 44 11.7          19.0 R EK003H01
     K10J88F  C2010 05 16.27759 14 43 05.74 +30 44 11.9                 EK003H10
     K10J88F  C2010 05 16.28430 14 43 04.79 +30 44 18.7          19.0 R EK003H01
     K10J88F  C2010 05 16.28793 14 43 04.35 +30 44 22.9          19.1 R EK003651
     K10J88F  C2010 05 16.29012 14 43 04.03 +30 44 25.0          19.1 R EK003651
     K10J88F  C2010 05 16.29230 14 43 03.72 +30 44 27.1          19.1 R EK003651
     K10J88F  C2010 05 16.29862 14 43 02.74 +30 44 32.6          19.0 R EK003H01
     K10J88F KC2010 05 16.32182 14 42 59.39 +30 44 55.6          18.9 R EK003H10
     K10J88F KC2010 05 16.32967 14 42 58.29 +30 45 03.1          18.9 R EK003H10

Observer details:
651 Grasslands Observatory, Tucson.  Observer J. E. McGaha.  0.62-m f/5.1
    Newtonian reflector + CCD.
658 National Research Council of Canada.  Observer D. D. Balam.  Measurers
    D. D. Balam, D. Bohlender, D. Monin, E. Chisholm, J. J. Kavelaars.  1.82-m
    Plaskett telescope + CCD.
703 Catalina Sky Survey.  Observer R. A. Kowalski.  Measurers J. D. Ahern,
    E. C. Beshore, A. Boattini, G. J. Garradd, A. R. Gibbs, A. D. Grauer,
    R. E. Hill, R. A. Kowalski, S. M. Larson, R. H. McNaught.  0.68-m Schmidt
    + CCD.
B20 Observatorio Carmelita, Tiana.  Observer J. M. Aymami.  0.25-m f/4.3
    Schmidt-Cassegrain + CCD.
G96 Mt. Lemmon Survey.  Observer A. R. Gibbs.  Measurers J. D. Ahern,
    E. C. Beshore, A. Boattini, G. J. Garradd, A. R. Gibbs, A. D. Grauer,
    R. E. Hill, R. A. Kowalski, S. M. Larson, R. H. McNaught.  1.5-m reflector
    + CCD.
H01 Magdalena Ridge Observatory, Socorro.  Observers W. H. Ryan, E. V. Ryan.
    Measurer W. H. Ryan.  2.4-m f/8.9 reflector + CCD.
H10 Tzec Maun Observatory, Mayhill.  Observers D. Chestnov, A. Novichonok,
    F. Tozzi.  0.36-m f/3.8 Maksutov-Newtonian + CCD.
H26 Doc Greiner Research Observatory, Janesvillle.  Observer M. Mills.  0.4-m
    f/8 Schmidt-Cassegrain + CCD.
J01 Observatorio Cielo Profundo, Oviedo.  Observer J. Gonzalez.  0.23-m f/10
    Schmidt-Cassegrain + CCD.

Orbital elements:
2010 JF88                                                Earth MOID = 0.1422 AU
Epoch 2010 July 23.0 TT = JDT 2455400.5                 MPC
M 353.60035              (2000.0)            P               Q
n   0.31597516     Peri.  211.40829     +0.81135663     +0.52078702
a   2.1348503      Node   114.90238     -0.45706025     +0.84832614
e   0.6360181      Incl.   17.01944     -0.36441234     +0.09551775
P   3.12           H   18.6           G   0.15           U   9
Residuals in seconds of arc
100514 703  0.4+  0.1-    100515 G96  0.3-  0.2-    100516 G96  0.4-  0.0
100514 703  0.3+  1.4+    100515 G96  0.3-  0.1+    100516 H01  0.1-  0.3+
100514 703  1.8+  1.1+    100515 H01  0.2-  0.0     100516 H10  0.8-  0.6-
100514 703  0.2-  0.1+    100515 H01  0.1-  0.1-    100516 H10  0.0   0.6+
100514 703  0.0   0.7-    100515 H01  0.1-  0.0     100516 H10  1.0-  0.3-
100514 703  1.1+  0.1+    100515 H01  0.0   0.1-    100516 H01  0.2-  0.3+
100514 703  0.8+  0.4+    100515 H26  0.2+  0.4+    100516 H10  0.2+  0.4-
100514 658  2.0-  0.8-    100515 H26  1.2+  0.3-    100516 H01  0.0   0.1+
100514 658  1.7-  0.6-    100515 H26  1.1-  0.1-    100516 651  0.4+  0.0
100514 658  1.4-  0.5-    100515 B20  0.1-  0.3+    100516 651  0.3+  0.0
100514 J01  0.0   0.2-    100515 B20  0.1+  0.1+    100516 651  0.4+  0.0
100514 J01  0.8+  0.1+    100515 B20  0.2+  0.1-    100516 H01  0.1+  0.0
100514 J01  0.1-  0.1+    100516 G96  0.1-  0.0     100516 H10  0.3+  0.2+
100515 G96  0.0   0.4-    100516 G96  0.4-  0.0     100516 H10  0.6+  0.1+
100515 G96  0.1-  0.2-    100516 G96  0.1-  0.1+

Ephemeris:
2010 JF88                a,e,i = 2.13, 0.64, 17                  q = 0.7770
Date    TT    R. A. (2000) Decl.     Delta      r     Elong.  Phase     V
2010 05 14    14 48.19   +30 05.1    0.582    1.458   130.7    31.7    19.6
2010 05 24    14 24.20   +32 29.7    0.522    1.362   121.9    39.1    19.4
2010 06 03    13 57.21   +33 34.1    0.470    1.266   111.7    48.1    19.3
2010 06 13    13 28.95   +33 08.9    0.422    1.169   100.6    58.7    19.2
2010 06 23    12 59.70   +31 14.9    0.372    1.074    88.7    71.1    19.1
2010 07 03    12 26.12   +27 51.0    0.319    0.984    75.1    86.6    19.1
2010 07 13    11 40.13   +22 26.8    0.267    0.903    57.9   107.6    19.5

2010 09 01    07 09.07   -07 09.8    0.454    0.835    54.8    98.8    20.1
2010 09 11    07 08.12   -06 58.3    0.532    0.900    62.9    85.3    20.0
2010 09 21    07 11.32   -06 39.0    0.593    0.980    70.4    74.8    20.0
2010 10 01    07 14.81   -06 21.3    0.638    1.069    78.0    66.3    20.1
2010 10 11    07 16.18   -06 04.5    0.665    1.164    86.3    58.9    20.2
2010 10 21    07 13.82   -05 42.0    0.680    1.261    95.7    51.8    20.2
2010 10 31    07 06.67   -05 05.3    0.687    1.358   106.4    44.6    20.2
2010 11 10    06 54.09   -04 04.5    0.692    1.453   118.4    36.8    20.1
2010 11 20    06 36.40   -02 31.0    0.704    1.548   131.5    28.6    20.0
2010 11 30    06 15.13   -00 23.3    0.731    1.640   144.9    20.2    20.0
2010 12 10    05 52.87   +02 11.1    0.781    1.729   156.4    13.2    20.0
2010 12 20    05 32.60   +04 57.1    0.857    1.816   161.0    10.1    20.2
2010 12 30    05 16.44   +07 39.4    0.961    1.900   155.6    12.3    20.6
2011 01 09    05 05.30   +10 08.5    1.089    1.982   145.8    16.2    21.1
2011 01 19    04 59.14   +12 20.8    1.240    2.060   135.5    19.5    21.6
2011 01 29    04 57.35   +14 16.4    1.407    2.137   125.7    22.0    22.1

Carl W. Hergenrother         (C) Copyright 2010 MPC           M.P.E.C. 2010-K03

Read MPEC 2010-K02 Read MPEC 2010-K04


MPEC number:

Enter an MPEC number in one of the following forms:

  • 1997-B01 (the full form)
  • J97B01 (the packed version of the full form)
  • B01 (the abbreviated form)

Valid HTML 4.01!